TimeEDT,TemperatureF,Dew PointF,Humidity,Sea Level PressureIn,VisibilityMPH,Wind Direction,Wind SpeedMPH,Gust SpeedMPH,PrecipitationIn,Events,Conditions,WindDirDegrees,DateUTC
12:51 AM,54.0,48.0,80,30.07,10.0,NNE,4.6,-,N/A,,Clear,20,2013-09-14 04:51:00
1:51 AM,53.1,48.0,83,30.07,10.0,North,3.5,-,N/A,,Clear,360,2013-09-14 05:51:00
2:51 AM,52.0,48.9,89,30.07,10.0,NNE,3.5,-,N/A,,Clear,20,2013-09-14 06:51:00
3:51 AM,51.1,48.0,89,30.08,10.0,NNE,3.5,-,N/A,,Clear,20,2013-09-14 07:51:00
4:51 AM,51.1,48.0,89,30.08,10.0,Variable,3.5,-,N/A,,Clear,0,2013-09-14 08:51:00
5:51 AM,50.0,46.9,89,30.08,10.0,NNE,3.5,-,N/A,,Clear,20,2013-09-14 09:51:00
6:51 AM,48.9,46.0,90,30.09,10.0,NE,4.6,-,N/A,,Clear,40,2013-09-14 10:51:00
7:51 AM,51.1,46.9,86,30.12,10.0,Calm,Calm,-,N/A,,Clear,0,2013-09-14 11:51:00
8:51 AM,53.1,48.0,83,30.14,10.0,NE,5.8,-,N/A,,Clear,40,2013-09-14 12:51:00
9:51 AM,57.0,48.9,74,30.16,10.0,East,6.9,-,N/A,,Clear,100,2013-09-14 13:51:00
10:51 AM,60.1,46.9,62,30.16,10.0,NE,3.5,-,N/A,,Mostly Cloudy,40,2013-09-14 14:51:00
11:51 AM,62.1,45.0,53,30.16,10.0,Variable,4.6,-,N/A,,Mostly Cloudy,0,2013-09-14 15:51:00
12:51 PM,64.0,45.0,50,30.15,10.0,Calm,Calm,-,N/A,,Clear,0,2013-09-14 16:51:00
1:51 PM,66.0,45.0,47,30.14,10.0,Calm,Calm,-,N/A,,Clear,0,2013-09-14 17:51:00
2:51 PM,69.1,46.0,44,30.12,10.0,Variable,3.5,-,N/A,,Clear,0,2013-09-14 18:51:00
3:51 PM,70.0,46.0,42,30.11,10.0,Variable,4.6,-,N/A,,Clear,0,2013-09-14 19:51:00
4:51 PM,69.1,45.0,42,30.10,10.0,Calm,Calm,-,N/A,,Clear,0,2013-09-14 20:51:00
5:51 PM,69.1,44.1,40,30.11,10.0,NE,3.5,-,N/A,,Clear,50,2013-09-14 21:51:00
6:51 PM,66.0,46.0,48,30.12,10.0,ENE,4.6,-,N/A,,Clear,60,2013-09-14 22:51:00
7:51 PM,62.1,46.0,56,30.12,10.0,NE,3.5,-,N/A,,Clear,40,2013-09-14 23:51:00
8:51 PM,57.0,48.9,74,30.13,10.0,Calm,Calm,-,N/A,,Clear,0,2013-09-15 00:51:00
9:51 PM,55.9,50.0,80,30.14,10.0,Calm,Calm,-,N/A,,Clear,0,2013-09-15 01:51:00
10:51 PM,52.0,48.9,89,30.14,10.0,Calm,Calm,-,N/A,,Clear,0,2013-09-15 02:51:00
11:51 PM,52.0,50.0,93,30.14,10.0,Calm,Calm,-,N/A,,Clear,0,2013-09-15 03:51:00